STARLINK-32078, 60338

Orbit data source: Space-Track

STARLINK-32078, 60338 is a payload satellite owned by SpaceX/Seattle (US) in LEO that was launched on Fri, 02 Aug 2024 UTC via an FALCON 9 launch vehicle from the Air Force Eastern Test Range (AFETR). Payloads include a variety of satellites, spacecraft, and rockets equipped with specific instruments for various scientific and technological missions. These include communications satellites like Starlink; space stations such as the ISS; scientific satellites like the Hubble; Earth observation satellites from companies like Planet Labs, Umbra, and HawkEye 360; GPS; miniature CubeSats for education and research; and military/defense satellites.

Loading next visibility...
STARLINK-32078 details
Identifier
60338, 2024-136K
Orbit
LEO
Last TLE update21 hours ago
Origin
Flag of USSpaceX/Seattle (US)
ManufacturerSpaceX/Seattle
MissionOperational spacecraft
Bus & MotorSTARLINK V2M, Unknown motor
Mass730 kg wet, ~700 kg dry
Launch date (UTC)
2024-08-02 (5 months ago)
Launch vehicle
FALCON 9
Launch site
Air Force Eastern Test Range (AFETR)
Object type
Payload
Rocket body
Debris
Shape & HBRUnknown
Radar Cross SectionLarge (>1 m²)

Expand to show TLE details & history

TLE from 21 hours ago
0 STARLINK-32078
1 60338U 24136K   24356.33192436 -.00001005  00000-0 -21800-4 0  9990
2 60338  53.1615 335.0811 0001349 100.1978 259.9175 15.30201706 21788
Epoch: 2024-12-21T07:57Z
Definitive object data (Epoch: 2024-12-21T07:57:58.264Z)
Latitude-0.00003°
Longitude125.2037°
Altitude476.272 km
Speed7.629 km/s
True Right ascension22h 20m 19s
True Declination0° 00' 00"
Sunlit
Object was in daylight at TLE epoch
Visualization TLE readout
Latitude28.88031°
Longitude-83.12485°
Altitude476.028 km
Speed7.632 km/s
Apparent Right ascension11h 39m 17s
Apparent Declination-7° 22' 06"
Sunlit
Object is in full shadow
Visualization observer readout
Local Sidereal Time04:02:29
Azimuth79.818° E
Elevation-23.208°
Doppler factor1
Orbital elements
Apogee altitude476.391 km
Perigee altitude474.542 km
Semi-major axis6,853.603 km
Eccentricity0.0001349
Inclination53.1615°
RAAN335.0811°
Arg. of periapsis100.1978°
True anomaly259.90228°
Mean anomaly259.9175°
Eccentric anomaly259.90989°
Mean motion3.82529 °/min
BSTAR-0.0000218
Orbital period94.11 mins
Loading maneuver chart data...
Loading historical data...
Loading historical data...
Loading historical data...
Loading historical data...
Loading historical data...
Loading historical data...
Loading historical data...

STARLINK-32078 Visibility forecast

Observer location: undefined°, undefined

Span
Click to sort rows by Start time (UTC) header in descending order
Start Az.
Max El. time (UTC)
Max El. Az.
Max El.
End time (UTC)
End Az.
5 mins2024-12-22 07:58:58.984Z324.249° NNW2024-12-22 08:00:58.984Z32.625° NE40.398°2024-12-22 08:03:58.984Z115.101° SE
6 mins2024-12-23 00:53:58.984Z211.88° SW2024-12-23 00:56:58.984Z100.101° ESE38.614°2024-12-23 00:59:58.984Z57.209° ENE
4 mins2024-12-23 02:32:58.984Z296.523° NW2024-12-23 02:34:58.984Z342.331° N20.833°2024-12-23 02:36:58.984Z20.932° NNE
|